Tracking 28126 objects as of 2-Oct-2023
HD Live streaming from Space Station
objects crossing your sky now

STARLINK-30297

Track STARLINK-30297 now!
10-day predictions
STARLINK-30297 is classified as:


NORAD ID: 57682
Int'l Code: 2023-124V
Perigee: 515.7 km
Apogee: 518.0 km
Inclination: 53.1 °
Period: 94.8 minutes
Semi major axis: 6887 km
RCS: Unknown
Launch date: August 22, 2023
Source: United States (US)
Launch site: AIR FORCE WESTERN TEST RANGE (AFWTR)
Your satellite tracking list
Your tracking list is empty




NASA's NSSDC Master Catalog

Two Line Element Set (TLE):
1 57682U 23124V   23274.58471854 -.00005135  00000-0 -22943-3 0  9999
2 57682  53.0528  10.2735 0001711  71.7246 288.3935 15.18712785  7479
Source of the keplerian elements: AFSPC